This is the latest recevied weather packets stored in our database for station/object TG9ADI-20. If no packets are shown the sender has not sent any weather packets the latest 10 day(s).
| Time | Temp. | Humidity | Pressure | Rain* | Wind** | Luminosity | Snow |
|---|---|---|---|---|---|---|---|
| 1777859271 | 16.11° C | 96% | 1016 hPa | 0 mm | - | - | - |
| 1777858671 | 17.78° C | 95% | 1015 hPa | 0 mm | - | - | - |
| 1777858070 | 20° C | 94% | 1015 hPa | 0 mm | - | - | - |
| 1777857469 | 21.11° C | 93% | 1015 hPa | 0 mm | - | - | - |
| 1777856869 | 21.11° C | 10% | - | 0.25 mm | - | - | - |
| 1777856268 | 20° C | 90% | 1015 hPa | 0.25 mm | - | - | - |
| 1777855667 | 19.44° C | 80% | 1014 hPa | 0 mm | - | - | - |
| 1777855067 | 20.56° C | 80% | 1014 hPa | 0.25 mm | - | - | - |
| 1777854466 | 20.56° C | 92% | 1013 hPa | 0 mm | - | - | - |
| 1777853865 | 20.56° C | 92% | 1013 hPa | 0 mm | - | - | - |
| 1777853265 | 21.11° C | 91% | 1013 hPa | 0 mm | - | - | - |
| 1777852664 | 21.67° C | 90% | 1013 hPa | 0 mm | - | - | - |
| 1777852064 | 22.22° C | 88% | 1013 hPa | 0 mm | - | - | - |
| 1777851463 | 22.22° C | 87% | 1013 hPa | 0 mm | - | - | - |
| 1777850862 | 23.89° C | 81% | 1013 hPa | 0 mm | - | - | - |
| 1777850262 | 21.67° C | 89% | 1013 hPa | 0 mm | - | - | - |
| 1777849661 | 22.22° C | 88% | 1013 hPa | 0 mm | - | - | - |
| 1777849060 | 22.78° C | 81% | 1012 hPa | 0 mm | - | - | - |
| 1777848460 | 23.33° C | 83% | 1012 hPa | 0 mm | - | - | - |
| 1777847859 | 23.33° C | 83% | 1012 hPa | 0 mm | - | - | - |
| 1777847259 | 22.78° C | 79% | 1012 hPa | 0 mm | - | - | - |
| 1777846658 | 22.78° C | 79% | 1012 hPa | 0 mm | - | - | - |
| 1777846057 | 22.22° C | 84% | 1012 hPa | 0 mm | - | - | - |
| 1777845456 | 22.78° C | 82% | 1012 hPa | 0 mm | - | - | - |
| 1777844856 | 22.22° C | 82% | 1012 hPa | 0 mm | - | - | - |
* Rain latest hour (hover to see other rain measurements)
** Current wind speed in m/s (hover to see current wind gust speed)